Winchcombe, United Kingdom

5:57 PM GMT on February 21, 2017 (GMT +0000)
Gloucestershire

Weather History for EGBJ - August, 2013

Change the Weather History Date:

Monday, August 5, 2013

  Actual Average Record
Temperature  
Mean Temperature 66 °F -  
Max Temperature 73 °F 68 °F 87 °F (2003)
Min Temperature 60 °F 58 °F 55 °F (2010)
Cooling Degree Days 2    
Growing Degree Days 16 (Base 50)    
Moisture  
Dew Point 59 °F    
Average Humidity 76    
Maximum Humidity 88    
Minimum Humidity 57    
Precipitation  
Precipitation 0.00 in - - ()
Sea Level Pressure  
Sea Level Pressure 29.80 in    
Wind  
Wind Speed 8 mph ()    
Max Wind Speed 16 mph    
Max Gust Speed -    
Visibility 6.1 miles    
Events Rain , Thunderstorm    
Averages and records for this station are not official NWS values.
T = Trace of Precipitation, MM = Missing Value Source: Averaged Metar Reports

Daily Weather History Graph

Daily Weather History Graph

Search for Another Location

Airport or City:

Trip Planner

Search our weather history database for the weather conditions in past years. The results will help you decide how hot, cold, wet, or windy it might be!

Date:

Astronomy

Aug. 05, 2013 Rise Set
Actual Time 5:37 AM BST 8:51 PM BST
Civil Twilight 4:56 AM BST 9:31 PM BST
Nautical Twilight 4:03 AM BST 10:23 PM BST
Astronomical Twilight 2:51 AM BST 11:34 PM BST
Moon 4:19 AM BST (8/5) 7:38 PM BST (8/5)
Length of Visible Light 16h 34m
Length of Day
15h 13m
Waning Crescent, 2% of the Moon is Illuminated
Aug 5
Waning Crescent
Aug 6
New
Aug 14
First Quarter
Aug 21
Full
Aug 28
Last Quarter

Hourly Weather History & Observations

Time (BST) Temp. Dew Point Humidity Pressure Visibility Wind Dir Wind Speed Gust Speed Precip Events Conditions
6:50 AM 62.6 °F 57.2 °F 82% 29.83 in 6.2 mi SSE 9.2 mph - N/A   Partly Cloudy
7:20 AM 62.6 °F 57.2 °F 82% 29.83 in 6.2 mi SSE 9.2 mph - N/A   Partly Cloudy
7:50 AM 62.6 °F 57.2 °F 82% 29.83 in 6.2 mi SSE 8.1 mph - N/A   Scattered Clouds
8:20 AM 64.4 °F 57.2 °F 77% 29.83 in 6.2 mi SSE 9.2 mph - N/A   Scattered Clouds
8:50 AM 64.4 °F 57.2 °F 77% 29.83 in 6.2 mi SSE 10.4 mph - N/A   Scattered Clouds
9:20 AM 64.4 °F 59.0 °F 83% 29.83 in 6.2 mi SSE 10.4 mph - N/A   Scattered Clouds
9:50 AM 66.2 °F 59.0 °F 78% 29.80 in 6.2 mi SSE 11.5 mph - N/A   Mostly Cloudy
10:20 AM 68.0 °F 59.0 °F 73% 29.80 in 6.2 mi SSE 15.0 mph - N/A   Mostly Cloudy
10:50 AM 68.0 °F 59.0 °F 73% 29.80 in 6.2 mi South 13.8 mph - N/A   Mostly Cloudy
11:20 AM 68.0 °F 59.0 °F 73% 29.80 in 6.2 mi South 12.7 mph - N/A   Mostly Cloudy
11:50 AM 69.8 °F 60.8 °F 73% 29.80 in 6.2 mi South 16.1 mph - N/A   Scattered Clouds
12:20 PM 71.6 °F 59.0 °F 64% 29.80 in 6.2 mi South 12.7 mph - N/A   Scattered Clouds
12:50 PM 71.6 °F 59.0 °F 64% 29.77 in 6.2 mi SSE 16.1 mph - N/A   Scattered Clouds
1:20 PM 73.4 °F 57.2 °F 57% 29.77 in 6.2 mi South 10.4 mph - N/A   Scattered Clouds
1:50 PM 73.4 °F 57.2 °F 57% 29.77 in 6.2 mi South 13.8 mph - N/A   Scattered Clouds
2:20 PM 71.6 °F 57.2 °F 60% 29.77 in 6.2 mi South 8.1 mph - N/A Rain Rain Showers
2:50 PM 68.0 °F 60.8 °F 78% 29.77 in 6.2 mi WSW 4.6 mph - N/A   Mostly Cloudy
3:20 PM 69.8 °F 60.8 °F 73% 29.74 in 6.2 mi WSW 2.3 mph - N/A   Mostly Cloudy
3:50 PM 66.2 °F 59.0 °F 78% 29.77 in 6.2 mi WNW 11.5 mph - N/A Rain Light Rain Showers
4:20 PM 62.6 °F 59.0 °F 88% 29.77 in 4.3 mi NW 8.1 mph - N/A Rain , Thunderstorm Thunderstorms and Rain
4:50 PM 60.8 °F 57.2 °F 88% 29.77 in 5.6 mi Calm Calm - N/A Rain Light Rain Showers
5:20 PM 62.6 °F 59.0 °F 88% 29.80 in 6.2 mi Calm Calm - N/A Rain Light Rain Showers
5:50 PM 62.6 °F 59.0 °F 88% 29.80 in 6.2 mi North 2.3 mph - N/A   Scattered Clouds
6:20 PM 64.4 °F 59.0 °F 83% 29.80 in 6.2 mi WNW 2.3 mph - N/A   Scattered Clouds
6:50 PM 64.4 °F 59.0 °F 83% 29.80 in 6.2 mi Calm Calm - N/A Rain Light Rain